EW4994 Weather Reports


time (UTC)temp
F
wind
direction
speed
knots
gust
knots
rain 1hr
in
rain 24hr
in
rain mn
in
humidity
%
barometer
mb
20260504090104 65 207 10.4 13.0 0.00 0.00 0.00 59 1010.4
20260504081555 65 223 11.3 18.2 0.00 0.00 0.00 58 1010.3
20260504050023 65 182 8.7 13.0 0.00 0.00 0.00 51 1012.1
20260504044521 65 194 8.7 13.9 0.00 0.00 0.00 50 1012.2
20260504043020 65 188 7.8 12.2 0.00 0.00 0.00 49 1012.2
20260504041518 65 214 7.0 11.3 0.00 0.00 0.00 49 1012.3
20260504040017 65 224 6.1 13.9 0.00 0.00 0.00 49 1012.4
20260504034531 65 206 7.0 10.4 0.00 0.00 0.00 48 1012.5
20260504033018 65 194 4.3 14.8 0.00 0.00 0.00 47 1012.6
20260504031514 65 193 8.7 12.2 0.00 0.00 0.00 47 1012.6
20260504030014 65 227 8.7 13.9 0.00 0.00 0.00 46 1012.7
20260504024515 65 209 7.8 13.0 0.00 0.00 0.00 45 1012.8
20260504023013 66 205 7.0 13.0 0.00 0.00 0.00 45 1012.7
20260504021513 66 205 5.2 9.6 0.00 0.00 0.00 46 1012.7
20260504020012 66 198 6.1 11.3 0.00 0.00 0.00 46 1012.6
20260504014517 66 204 5.2 9.6 0.00 0.00 0.00 44 1012.7
20260504013011 67 218 7.0 9.6 0.00 0.00 0.00 43 1012.7
20260504011511 67 203 5.2 8.7 0.00 0.00 0.00 42 1012.6
20260504010010 68 196 6.1 8.7 0.00 0.00 0.00 40 1012.7
20260504004509 69 210 4.3 8.7 0.00 0.00 0.00 39 1012.6
20260504003008 70 215 7.0 12.2 0.00 0.00 0.00 37 1012.5
20260504001506 71 197 7.8 12.2 0.00 0.00 0.00 36 1012.7
20260504000006 71 194 9.6 14.8 0.00 0.00 0.00 35 1012.6
20260503234502 71 217 9.6 14.8 0.00 0.00 0.00 36 1012.8
20260503233100 71 237 13.0 20.0 0.00 0.00 0.00 35 1012.9
20260503231558 72 218 7.8 15.6 0.00 0.00 0.00 35 1013.1
20260503224554 72 216 13.9 21.7 0.00 0.00 0.00 32 1013.5
20260503223052 72 222 9.6 16.5 0.00 0.00 0.00 34 1013.6
20260503221548 72 198 11.3 19.1 0.00 0.00 0.00 33 1013.9
20260503220047 71 211 13.9 21.7 0.00 0.00 0.00 33 1014.0
20260503214552 71 192 10.4 19.1 0.00 0.00 0.00 34 1014.2
20260503213106 71 195 10.4 18.2 0.00 0.00 0.00 35 1014.4
20260503211557 71 243 11.3 17.4 0.00 0.00 0.00 36 1014.8
20260503210036 70 252 13.9 21.7 0.00 0.00 0.00 34 1015.0
20260503204550 70 212 13.0 20.9 0.00 0.00 0.00 36 1015.3
20260503203033 69 227 12.2 21.7 0.00 0.00 0.00 35 1015.6
20260503201526 69 223 10.4 20.9 0.00 0.00 0.00 38 1016.2
20260503200023 69 229 9.6 20.9 0.00 0.00 0.00 37 1016.5
20260503194523 69 182 12.2 20.0 0.00 0.00 0.00 37 1016.9
20260503193015 68 188 13.0 23.5 0.00 0.00 0.00 38 1017.3
20260503191513 68 263 12.2 22.6 0.00 0.00 0.00 41 1017.7
20260503190009 67 192 8.7 20.0 0.00 0.00 0.00 39 1017.9
20260503184507 67 223 10.4 21.7 0.00 0.00 0.00 40 1018.3
20260503183004 66 269 13.0 20.9 0.00 0.00 0.00 41 1018.4
20260503181503 66 236 17.4 23.5 0.00 0.00 0.00 41 1018.8
20260503180100 66 219 6.1 18.2 0.00 0.00 0.00 42 1019.0
20260503174613 65 220 9.6 19.1 0.00 0.00 0.00 41 1019.1
20260503173125 65 213 7.8 18.2 0.00 0.00 0.00 42 1019.5
20260503171552 64 202 13.0 16.5 0.00 0.00 0.00 43 1019.8